User: anonymous   Login
Location: Unspecified
(0.0000°N, 0.0000°E)
Time: 07:49:27
(UTC+00:00)
Language:

OV3-3 - Orbit

View from above orbital plane
View from above orbital plane
View from above satellite
View from above satellite

Ground track
Ground track

The orbit data is extracted from the following two-line orbital elements,

1 02389U 66070A   21334.89761094  .00006615  00000-0  36177-3 0  9993
2 02389  81.3846 292.2413 1218327 332.4044  21.7148 12.97563554380259
Epoch (UTC): 30 November 2021 21:32:33
Eccentricity: 0.1218327
inclination: 81.3846°
perigee height: 339 km
apogee height: 2203 km
right ascension of ascending node: 292.2413°
argument of perigee: 332.4044°
revolutions per day: 12.97563554
mean anomaly at epoch: 21.7148°
orbit number at epoch: 38025

The dashed part of the orbit path shows where the satellite is in the earth's shadow,  

DLR